Home   Weather   Delta   Past weeks

Flag for Canada Past Weather in Delta, British Columbia, Canada — Yesterday and Last 2 Weeks

Now
41 °F

Mostly cloudy.


Feels Like: 38 °F
Forecast: 39 / 47 °F
Wind: 5 mph from Northwest

Location: Vancouver International Airport

Current Time: Jan 20, 2017 at 8:42:29 pm

Latest Report: Jan 20, 2017 at 8:00 pm


Visibility: 20 mi

Pressure: 29.17 "Hg

Humidity: 93%

Dew Point: 39 °F

Location of DeltaLocation

Past Weather in Delta — Graph

°F

Delta Temperature Yesterday

Maximum temperature yesterday: 46 °F (at 9:33 am)
Minimum temperature yesterday: 43 °F (at 9:00 pm)
Average temperature yesterday: 45 °F

High & Low Weather Summary for the Past Weeks

 TemperatureHumidityPressure
High52 °F (Jan 18, 1:00 pm)100% (Jan 8, 5:00 pm)30.49 "Hg (Jan 8, 5:00 pm)
Low19 °F (Jan 12, 4:00 am)43% (Jan 10, 11:00 pm)29.14 "Hg (Jan 20, 2:00 pm)
Average36 °F82%29.82 "Hg
* Reported Jan 5 7:00 pm — Jan 20 7:00 pm, Delta, Weather by CustomWeather, © 2017

Note: Actual official high and low records may vary slightly from our data, if they occured in-between our weather recording intervals... More about our weather records

Advertising

Delta Weather History for the Previous 24 Hours

Scroll right to see more
 ConditionsComfort  
Time TempWeatherWind HumidityBarometerVisibility
7:00 pm
Fri, Jan 20
41 °FPassing clouds.5 mph100%29.16 "Hg20 mi
6:00 pm41 °FOvercast.6 mph93%29.15 "Hg30 mi
5:00 pm41 °FMostly cloudy.6 mph93%29.14 "Hg30 mi
4:00 pm41 °FMostly cloudy.9 mph93%29.14 "Hg30 mi
3:00 pm43 °FPartly sunny.8 mph87%29.14 "Hg30 mi
2:00 pm43 °FMostly cloudy.7 mph87%29.14 "Hg30 mi
1:00 pm41 °FPartly sunny.9 mph93%29.15 "Hg30 mi
12:44 pm41 °FBroken clouds.10 mph93%29.16 "Hg30 mi
12:00 pm45 °FBroken clouds.9 mph87%29.17 "Hg30 mi
11:00 am41 °FBroken clouds.2 mph87%29.20 "Hg30 mi
10:00 am39 °FBroken clouds.6 mph93%29.21 "Hg30 mi
9:00 am37 °FBroken clouds.No wind93%29.22 "Hg30 mi
8:25 am36 °FBroken clouds.3 mph100%29.23 "Hg30 mi
8:00 am37 °FBroken clouds.6 mph93%29.23 "Hg30 mi
7:08 am36 °FPassing clouds.7 mph93%29.23 "Hg20 mi
7:00 am39 °FPassing clouds.5 mph87%29.24 "Hg20 mi
6:00 am41 °FPassing clouds.7 mph87%29.26 "Hg20 mi
5:00 am43 °FPassing clouds.12 mph81%29.29 "Hg20 mi
4:00 am43 °FPassing clouds.9 mph81%29.33 "Hg20 mi
3:00 am43 °FPassing clouds.8 mph87%29.35 "Hg20 mi
2:00 am43 °FPartly cloudy.13 mph87%29.38 "Hg15 mi
1:42 am43 °FMostly cloudy.14 mph87%29.39 "Hg15 mi
1:00 am43 °FLight rain. Mostly cloudy.16 mph93%29.40 "Hg15 mi
12:13 am43 °FLight rain. Mostly cloudy.13 mph93%29.41 "Hg15 mi
12:00 am43 °FMostly cloudy.12 mph93%29.41 "Hg15 mi
11:00 pm
Thu, Jan 19
43 °FMostly cloudy.12 mph93%29.43 "Hg15 mi
10:00 pm43 °FMostly cloudy.9 mph93%29.43 "Hg15 mi
9:00 pm43 °FMostly cloudy.12 mph93%29.43 "Hg15 mi
8:00 pm45 °FOvercast.13 mph93%29.43 "Hg15 mi
Weather by CustomWeather, © 2017

See weather overviewHow to use our weather pages